Location: Blankensee
(53.5126°N, 14.3055°E)
Time: 18:57:32
(UTC+00:00)

Cosmos 1536 Rocket - Pass Details

Date: 08 August 2020
Orbit: 605 x 633 km, 82.5° (Epoch: 20 September)

Event Time Altitude Azimuth Distance (km) Brightness Sun altitude
Rises 00:20:18 0° 346° (NNW) 2,887 8.0 -18.7°
Reaches altitude 10° 00:22:32 10° 344° (NNW) 1,974 6.9 -18.6°
Maximum altitude 00:26:52 66° 263° (W) 665 3.5 -18.4°
Enters shadow 00:28:13 41° 196° (SSW) 883 3.8 -18.4°
